Aérodrome :
LOGIN :

S'inscrire | Disclaimer

   EN    FR    IT 

 










Légende :    VFR   VFR Marginal   IFR   IFR Intensif   IFR Très Intensif
Visi : 
Plafond : 
>= 8 km
>= 3000ft
5 à 8 km
1000 à 3000 ft
1500m à 5 km
500 à 1000 ft
800 à 1500m
200 à 500 ft
< 800m
< 200 ft
Symboles :   Orages  Brouillard  Fortes neiges  Fortes précipitations  Vent > 20 kt
SIGMETs :   Divers  Orages  Givrage  Turbulence  Onde Orograph.  Cendres Volcan.







- Altitude de l'aérodrome : 410 ft
- Code IATA : AVB


LIPA - Aviano AB Pordenone

DERNIER METAR :
  • 261755Z 24005KT CAVOK 32/23 Q1020 RMK SKC VIS MIN 9999 WIND THR05 /////KT WIND THR23 /////KT A3014 BLU

METARs EXPIRÉS :
  • 261655Z 22005KT CAVOK 33/22 Q1020 RMK SKC VIS MIN 9999 WIND THR05 /////KT WIND THR23 /////KT A3014 BLU
  • 261555Z 22006KT CAVOK 34/21 Q1020 RMK SKC VIS MIN 9999 WIND THR05 /////KT WIND THR23 /////KT A3015 BLU
  • 261455Z 22005KT 9999 FEW080 34/20 Q1022 RMK FEW VIS MIN 9999 WIND THR05 /////KT WIND THR23 /////KT A3019 BLU

TAF TAF LIPA
Valide du 26 à 18h jusqu'au 27 à 03h UTC


261700Z 2618/2703 22005KT CAVOK
Pas de NOTAMs connus pour ce terrain.



MET'MAP, la Météo Aéronautique d'un coup d'oeil ! - Copyright ORBIFLY Décembre 2007 - Disclaimer

ORBIFLY MET'MAP TEAM :

Programmation & Développement : Alexandra Zaïnal
Conception & Développement : Baudouin d'Aumeries
Co-Programmation & Développement : Marc-Olivier Méhu
Soutien technique & logistique : Manuel Goepfert

Contact : metmap@orbifly.com




SOURCES & CREDITS :

   NOAA